Location: Borovka
(49.7741°N, 14.5280°E)
Time: 09:34:26
(UTC+00:00)

LilacSat-2 - Pass Details

Date: 21 March 2026
Orbit: 412 x 424 km, 97.5° (Epoch: 20 April)

Event Time Altitude Azimuth Distance (km) Brightness Sun altitude
Rises 19:12:51 0° 211° (SSW) 2,391 ? -19.0°
Reaches altitude 10° 19:15:46 10° 241° (WSW) 1,531 ? -19.4°
Maximum altitude 19:17:19 13° 270° (W) 1,372 ? -19.7°
Drops below altitude 10° 19:18:53 10° 298° (WNW) 1,536 ? -19.9°
Sets 19:21:50 0° 328° (NNW) 2,409 ? -20.3°
